Tracking 28794 objects as of 19-Apr-2024
HD Live streaming from Space Station
objects crossing your sky now

SKYNET 1

Track SKYNET 1 now!
SKYNET 1 is classified as:


NORAD ID: 4250
Int'l Code: 1969-101A
Perigee: 35,703.0 km
Apogee: 35,886.8 km
Inclination: 1.6 °
Period: 1,436.2 minutes
Semi major axis: 42165 km
RCS: 1.2928 m2 (large)
Launch date: November 22, 1969
Source: United Kingdom (UK)
Launch site: AIR FORCE EASTERN TEST RANGE (AFETR)
Your satellite tracking list
Your tracking list is empty




NASA's NSSDC Master Catalog

Two Line Element Set (TLE):
1 04250U 69101A   24110.51565767 -.00000093  00000-0  00000-0 0  9991
2 04250   1.6057 277.0969 0021797 308.4533  63.2341  1.00267640126615
Source of the keplerian elements: AFSPC